When you browse on this site, cookies collect data to enhance your experience and personalize the content and advertising you see.
Visit our Privacy Policy to learn more. By continuing to use the site, you agree to this use of cookies and data.
  • In Austria
  • List of Countries
  • For 7 days
  • Water Temperature
  • Satellite Maps
  • Weather Map
  • News
  • Weather Widgets
  • user-avatar
    Login

    Hourly Weather Riobamba

    Today, 20 July, Saturday

    Time Temperature Precipitation Wind Pressure Humidity
    00:00 +11°C° 0 mm 3 mps 541 mmHg 92%
    01:00 +12°C° 0 mm 2 mps 541 mmHg 95%
    02:00 +12°C° 0.1 mm 2 mps 541 mmHg 95%
    03:00 +11°C° 0.1 mm 3 mps 540 mmHg 95%
    04:00 +10°C° 0.1 mm 3 mps 540 mmHg 95%
    05:00 +10°C° 0.1 mm 3 mps 540 mmHg 94%
    06:00 +10°C° 0.1 mm 3 mps 540 mmHg 94%
    07:00 +10°C° 0.1 mm 3 mps 541 mmHg 94%
    08:00 +11°C° 0.1 mm 3 mps 541 mmHg 90%
    09:00 +12°C° 0.1 mm 3 mps 542 mmHg 87%
    10:00 +13°C° 0.1 mm 3 mps 543 mmHg 84%
    11:00 +14°C° 0.1 mm 3 mps 543 mmHg 79%
    12:00 +16°C° 0.1 mm 3 mps 543 mmHg 75%
    13:00 +17°C° 0.1 mm 3 mps 543 mmHg 70%
    14:00 +17°C° 0.1 mm 3 mps 543 mmHg 70%
    15:00 +17°C° 0.1 mm 4 mps 542 mmHg 69%
    16:00 +17°C° 0.1 mm 4 mps 542 mmHg 69%
    17:00 +14°C° 0.1 mm 3 mps 541 mmHg 76%
    18:00 +13°C° 0.1 mm 3 mps 541 mmHg 84%
    19:00 +12°C° 0.1 mm 2 mps 540 mmHg 92%
    20:00 +12°C° 0.1 mm 2 mps 541 mmHg 92%
    21:00 +12°C° 0.1 mm 2 mps 541 mmHg 93%
    22:00 +12°C° 0.1 mm 2 mps 542 mmHg 94%
    23:00 +12°C° 0.1 mm 2 mps 541 mmHg 94%

    Tomorrow, 21 July, Sunday

    Time Temperature Precipitation Wind Pressure Humidity
    00:00 +12°C° 0.1 mm 2 mps 541 mmHg 94%
    01:00 +12°C° 0.1 mm 2 mps 541 mmHg 95%
    02:00 +12°C° 0.1 mm 2 mps 541 mmHg 95%
    03:00 +12°C° 0.1 mm 2 mps 541 mmHg 96%
    04:00 +12°C° 0.1 mm 2 mps 540 mmHg 96%
    05:00 +12°C° 0.1 mm 2 mps 540 mmHg 96%
    06:00 +12°C° 0.1 mm 2 mps 540 mmHg 95%
    07:00 +12°C° 0.1 mm 2 mps 541 mmHg 95%
    08:00 +13°C° 0.1 mm 2 mps 541 mmHg 91%
    09:00 +12°C° 0.1 mm 3 mps 542 mmHg 88%
    10:00 +13°C° 0.1 mm 3 mps 543 mmHg 84%
    11:00 +14°C° 0.2 mm 3 mps 543 mmHg 80%
    12:00 +16°C° 0.2 mm 3 mps 543 mmHg 76%
    13:00 +17°C° 0.2 mm 3 mps 543 mmHg 72%
    14:00 +17°C° 0.2 mm 3 mps 543 mmHg 73%
    15:00 +16°C° 0.2 mm 3 mps 542 mmHg 74%
    16:00 +16°C° 0.2 mm 3 mps 541 mmHg 75%
    17:00 +14°C° 0.1 mm 3 mps 541 mmHg 79%
    18:00 +14°C° 0.1 mm 2 mps 541 mmHg 84%
    19:00 +13°C° 0.1 mm 2 mps 541 mmHg 89%
    20:00 +13°C° 0.1 mm 2 mps 541 mmHg 91%
    21:00 +12°C° 0.1 mm 2 mps 541 mmHg 92%
    22:00 +12°C° 0.1 mm 2 mps 542 mmHg 94%
    23:00 +12°C° 0.1 mm 2 mps 541 mmHg 94%

    Day after tomorrow, 22 July, Monday

    Time Temperature Precipitation Wind Pressure Humidity
    00:00 +12°C° 0.1 mm 2 mps 541 mmHg 93%
    01:00 +12°C° 0.1 mm 2 mps 541 mmHg 92%
    02:00 +12°C° 0 mm 1 mps 541 mmHg 93%
    03:00 +11°C° 0 mm 1 mps 540 mmHg 94%
    04:00 +11°C° 0 mm 1 mps 540 mmHg 95%
    05:00 +11°C° 0 mm 1 mps 540 mmHg 95%
    06:00 +11°C° 0 mm 1 mps 540 mmHg 95%
    07:00 +11°C° 0 mm 1 mps 541 mmHg 95%
    08:00 +12°C° 0.1 mm 2 mps 542 mmHg 91%
    09:00 +13°C° 0.1 mm 2 mps 543 mmHg 87%
    10:00 +14°C° 0.1 mm 2 mps 543 mmHg 83%
    11:00 +15°C° 0.3 mm 2 mps 543 mmHg 81%
    12:00 +14°C° 0.3 mm 3 mps 543 mmHg 80%
    13:00 +16°C° 0.3 mm 3 mps 543 mmHg 78%
    14:00 +16°C° 0.3 mm 3 mps 543 mmHg 78%
    15:00 +16°C° 0.3 mm 3 mps 542 mmHg 78%
    16:00 +16°C° 0.3 mm 2 mps 542 mmHg 77%
    17:00 +15°C° 0.3 mm 2 mps 542 mmHg 83%
    18:00 +14°C° 0.3 mm 2 mps 541 mmHg 88%
    19:00 +13°C° 0.3 mm 2 mps 541 mmHg 93%
    20:00 +13°C° 0.2 mm 2 mps 541 mmHg 93%
    21:00 +12°C° 0.2 mm 2 mps 542 mmHg 94%
    22:00 +12°C° 0.2 mm 1 mps 542 mmHg 94%
    23:00 +12°C° 0.2 mm 1 mps 542 mmHg 95%

    23 July, Tuesday

    Time Temperature Precipitation Wind Pressure Humidity
    00:00 +12°C° 0.2 mm 1 mps 542 mmHg 96%
    01:00 +12°C° 0.2 mm 1 mps 541 mmHg 96%
    02:00 +12°C° 0.1 mm 1 mps 541 mmHg 96%
    03:00 +12°C° 0.1 mm 1 mps 541 mmHg 95%
    04:00 +12°C° 0.1 mm 1 mps 541 mmHg 95%
    05:00 +12°C° 0.1 mm 1 mps 541 mmHg 95%
    06:00 +12°C° 0.1 mm 1 mps 541 mmHg 95%
    07:00 +12°C° 0.1 mm 1 mps 541 mmHg 94%
    08:00 +12°C° 0.2 mm 1 mps 542 mmHg 93%
    09:00 +13°C° 0.2 mm 2 mps 542 mmHg 92%
    10:00 +13°C° 0.2 mm 2 mps 543 mmHg 91%
    11:00 +13°C° 0.3 mm 2 mps 542 mmHg 89%
    12:00 +13°C° 0.3 mm 2 mps 542 mmHg 88%
    13:00 +14°C° 0.3 mm 2 mps 542 mmHg 87%
    14:00 +14°C° 0.3 mm 2 mps 542 mmHg 85%
    15:00 +14°C° 0.3 mm 2 mps 541 mmHg 84%
    16:00 +15°C° 0.3 mm 2 mps 541 mmHg 82%
    17:00 +14°C° 0.1 mm 2 mps 541 mmHg 87%
    18:00 +13°C° 0.1 mm 1 mps 541 mmHg 91%
    19:00 +12°C° 0.1 mm 1 mps 541 mmHg 96%
    20:00 +12°C° 0.2 mm 1 mps 541 mmHg 96%
    21:00 +12°C° 0.2 mm 1 mps 542 mmHg 96%
    22:00 +12°C° 0.2 mm 1 mps 542 mmHg 96%
    23:00 +12°C° 0.3 mm 1 mps 542 mmHg 96%

    24 July, Wednesday

    Time Temperature Precipitation Wind Pressure Humidity
    00:00 +11°C° 0.3 mm 1 mps 541 mmHg 96%
    01:00 +11°C° 0.3 mm 1 mps 541 mmHg 96%
    02:00 +11°C° 0.3 mm 1 mps 541 mmHg 96%
    03:00 +11°C° 0.3 mm 1 mps 540 mmHg 96%
    04:00 +10°C° 0.3 mm 2 mps 540 mmHg 96%
    05:00 +11°C° 0 mm 1 mps 540 mmHg 96%
    06:00 +11°C° 0 mm 1 mps 541 mmHg 96%
    07:00 +11°C° 0 mm 1 mps 541 mmHg 97%
    08:00 +12°C° 0.1 mm 2 mps 542 mmHg 92%
    09:00 +13°C° 0.1 mm 2 mps 543 mmHg 87%
    10:00 +14°C° 0.1 mm 2 mps 544 mmHg 82%
    11:00 +15°C° 0.3 mm 2 mps 543 mmHg 80%
    12:00 +16°C° 0.3 mm 2 mps 543 mmHg 78%
    13:00 +16°C° 0.3 mm 2 mps 543 mmHg 76%
    14:00 +16°C° 0.3 mm 2 mps 543 mmHg 76%
    15:00 +16°C° 0.3 mm 2 mps 542 mmHg 76%
    16:00 +16°C° 0.3 mm 2 mps 542 mmHg 76%
    17:00 +15°C° 0.2 mm 2 mps 541 mmHg 81%
    18:00 +14°C° 0.2 mm 2 mps 541 mmHg 85%
    19:00 +13°C° 0.2 mm 1 mps 541 mmHg 90%
    20:00 +12°C° 0.2 mm 1 mps 541 mmHg 91%
    21:00 +12°C° 0.2 mm 1 mps 541 mmHg 93%
    22:00 +12°C° 0.2 mm 1 mps 542 mmHg 94%
    23:00 +12°C° 0.4 mm 1 mps 541 mmHg 94%

    25 July, Thursday

    Time Temperature Precipitation Wind Pressure Humidity
    00:00 +12°C° 0.4 mm 1 mps 541 mmHg 94%
    01:00 +12°C° 0.4 mm 1 mps 541 mmHg 95%
    02:00 +12°C° 0.3 mm 1 mps 541 mmHg 95%
    03:00 +12°C° 0.3 mm 1 mps 540 mmHg 95%
    04:00 +12°C° 0.3 mm 1 mps 540 mmHg 94%
    05:00 +11°C° 0 mm 1 mps 540 mmHg 95%
    06:00 +11°C° 0 mm 1 mps 541 mmHg 95%
    07:00 +11°C° 0 mm 1 mps 541 mmHg 95%
    08:00 +12°C° 0.1 mm 1 mps 542 mmHg 90%
    09:00 +13°C° 0.1 mm 2 mps 542 mmHg 86%
    10:00 +14°C° 0.1 mm 2 mps 543 mmHg 81%
    11:00 +15°C° 0.3 mm 2 mps 543 mmHg 79%
    12:00 +15°C° 0.3 mm 2 mps 543 mmHg 78%
    13:00 +16°C° 0.3 mm 2 mps 543 mmHg 76%
    14:00 +16°C° 0.4 mm 2 mps 543 mmHg 77%
    15:00 +15°C° 0.4 mm 2 mps 542 mmHg 78%
    16:00 +15°C° 0.4 mm 2 mps 542 mmHg 80%
    17:00 +14°C° 0.5 mm 2 mps 541 mmHg 84%
    18:00 +13°C° 0.5 mm 2 mps 541 mmHg 89%
    19:00 +12°C° 0.5 mm 2 mps 541 mmHg 94%
    20:00 +12°C° 0.3 mm 2 mps 541 mmHg 94%
    21:00 +12°C° 0.3 mm 2 mps 542 mmHg 95%
    22:00 +12°C° 0.3 mm 2 mps 542 mmHg 95%
    23:00 +12°C° 0.4 mm 2 mps 542 mmHg 95%
    Show more